Location: Newark
(53.4333°N, 36.0000°E)
Time: 13:46:06
(UTC+00:00)

ISS - Pass Details

Date: 30 September 2019
Orbit: 411 x 421 km, 51.6° (Epoch: 19 October)

Event Time Altitude Azimuth Distance (km) Brightness Sun altitude
Rises 16:09:50 0° 265° (W) 2,347 2.0 -8.8°
Reaches altitude 10° 16:11:56 10° 262° (W) 1,484 0.5 -9.1°
Maximum altitude 16:15:13 65° 181° (S) 458 -3.6 -9.6°
Enters shadow 16:17:50 15° 101° (E) 1,206 -2.1 -10.0°
